Punkttermin-Prognose für Emden
Modell: MOSMIX (Deutscher Wetterdienst)
Modelllaufzeit: 03 UTC
Aktualisierung: stündlich
Dienstag - 17.09.2019
| Wetter - | Temperaturen | Wind | Niederschlag | Druck | Sonne
Zeit GZ | Bewölkung | TT MAX MIN TG TM | DD FF FX1 | RR1 RR24 | PPPP | SS1 SS24
02:00 Uhr | --- | --- --- --- --- --- | --- --- --- | --- | --- | ---
03:00 Uhr | --- | --- --- --- --- --- | --- --- --- | --- | --- | ---
04:00 Uhr | --- | --- --- --- --- --- | --- --- --- | --- | --- | ---
05:00 Uhr | --- | --- --- --- --- --- | --- --- --- | --- | --- | ---
06:00 Uhr | wolkig | 13 --- --- 11 --- | W 26 --- | 0.0 | 1018 | 0.0
07:00 Uhr | stark bewölkt | 13 --- --- 12 --- | W 28 --- | 0.0 | 1018 | 0.0
08:00 Uhr | Regenschauer | 13 --- 12 12 --- | NW 30 41 | 0.0 | 1018 | 0.0
09:00 Uhr | Regenschauer | 13 --- --- 13 --- | NW 32 43 | 0.1 | 1018 | 0.1
10:00 Uhr | Regenschauer | 14 --- --- 14 --- | NW 33 --- | 0.1 | 1018 | 0.2
11:00 Uhr | Regenschauer | 14 --- --- 15 --- | NW 35 50 | 0.1 | 1018 | 0.3
12:00 Uhr | Regenschauer | 14 --- --- 16 --- | NW 39 52 | 0.1 | 1018 | 0.3
13:00 Uhr | wolkig | 14 --- --- 16 --- | NW 41 56 | 0.0 | 1018 | 0.5
14:00 Uhr | wolkig | 14 --- --- 17 --- | NW 43 57 | 0.0 | 1019 | 0.5
15:00 Uhr | wolkig | 14 --- --- 16 --- | NW 43 59 | 0.0 | 1019 | 0.6
16:00 Uhr | wolkig | 14 --- --- 16 --- | NW 46 59 | 0.0 | 1019 | 0.6
17:00 Uhr | wolkig | 14 --- --- 15 --- | NW 44 57 | 0.0 | 1019 | 0.6
18:00 Uhr | wolkig | 14 --- --- 14 --- | NW 43 57 | 0.0 | 1019 | 0.5
19:00 Uhr | wolkig | 14 --- --- 14 --- | NW 43 57 | 0.0 | 1020 | 0.4
20:00 Uhr | wolkig | 13 15 --- 13 --- | NW 43 56 | 0.0 | 1020 | 0.2
21:00 Uhr | wolkig | 13 --- --- 12 --- | NW 41 54 | 0.0 | 1021 | 0.0
22:00 Uhr | wolkig | 13 --- --- 12 --- | NW 39 52 | 0.0 | 1021 | 0.0
23:00 Uhr | wolkig | 13 --- --- 12 --- | NW 39 52 | 0.0 | 1021 | 0.0
00:00 Uhr | wolkig | 13 --- --- 12 --- | NW 37 50 | 0.0 | 1022 | 0.0
Mittwoch - 18.09.2019
| Wetter - | Temperaturen | Wind | Niederschlag | Druck | Sonne
Zeit GZ | Bewölkung | TT MAX MIN TG TM | DD FF FX1 | RR1 RR24 | PPPP | SS1 SS24
01:00 Uhr | wolkig | 13 --- --- 12 --- | NW 37 48 | 0.0 | 1022 | 0.0
02:00 Uhr | wolkig | 13 --- --- 11 --- | NW 35 44 | 0.0 | 1022 | 0.0
03:00 Uhr | wolkig | 13 --- --- 11 --- | NW 33 43 | 0.0 | 1023 | 0.0
04:00 Uhr | wolkig | 13 --- --- 11 --- | NW 33 44 | 0.0 | 1023 | 0.0
05:00 Uhr | wolkig | 13 --- --- 11 --- | NW 33 43 | 0.0 | 1024 | 0.0
06:00 Uhr | wolkig | 12 --- --- 11 --- | NW 33 43 | 0.0 | 1024 | 0.0
07:00 Uhr | wolkig | 12 --- --- 11 --- | NW 32 41 | 0.0 | 1024 | 0.0
08:00 Uhr | wolkig | 13 --- 12 12 --- | NW 32 41 | 0.0 | 1025 | 0.1
09:00 Uhr | wolkig | 13 --- --- 13 --- | NW 32 41 | 0.0 | 1025 | 0.3
10:00 Uhr | wolkig | 14 --- --- 14 --- | NW 32 43 | 0.0 | 1026 | 0.4
11:00 Uhr | wolkig | 14 --- --- 16 --- | NW 30 43 | 0.0 | 1026 | 0.5
12:00 Uhr | wolkig | 14 --- --- 16 --- | NW 30 41 | 0.0 | 1027 | 0.5
13:00 Uhr | wolkig | 14 --- --- 17 --- | NW 30 41 | 0.0 | 1027 | 0.5
14:00 Uhr | wolkig | 14 --- --- 17 --- | NW 30 41 | 0.0 | 1027 | 0.5
15:00 Uhr | wolkig | 14 --- --- 17 --- | NW 28 --- | 0.0 | 1026 | 0.5
16:00 Uhr | wolkig | 14 --- --- 16 --- | NW 28 --- | 0.0 | 1027 | 0.5
17:00 Uhr | wolkig | 14 --- --- 16 --- | NW 28 --- | 0.0 | 1027 | 0.4
18:00 Uhr | wolkig | 14 --- --- 15 --- | NW 26 --- | 0.0 | 1027 | 0.4
19:00 Uhr | wolkig | 13 --- --- 14 --- | NW 26 --- | 0.0 | 1027 | 0.2
20:00 Uhr | wolkig | 13 15 --- 13 --- | NW 26 --- | 0.0 | 1027 | 0.1
21:00 Uhr | wolkig | 13 --- --- 12 --- | NW 24 --- | 0.0 | 1028 | 0.0
22:00 Uhr | wolkig | 13 --- --- 12 --- | NW 26 --- | 0.0 | 1028 | 0.0
23:00 Uhr | stark bewölkt | 12 --- --- 11 | NW 26 --- | 0.0 | 1028 | 0.0
00:00 Uhr | stark bewölkt | 12 --- --- 11 13 | NW 26 --- | 0.0 0.0 | 1028 | 0.0 5.0
Donnerstag - 19.09.2019
| Wetter - | Temperaturen | Wind | Niederschlag | Druck | Sonne
Zeit GZ | Bewölkung | TT MAX MIN TG TM | DD FF FX1 | RR1 RR24 | PPPP | SS1 SS24
01:00 Uhr | stark bewölkt | 12 --- --- 11 --- | NW 26 --- | 0.0 | 1028 | 0.0
02:00 Uhr | stark bewölkt | 12 --- --- 11 --- | NW 24 --- | 0.0 | 1028 | 0.0
03:00 Uhr | stark bewölkt | 12 --- --- 11 --- | NW 24 --- | 0.0 | 1028 | 0.0
04:00 Uhr | stark bewölkt | 12 --- --- 11 --- | NW 22 --- | 0.0 | 1028 | 0.0
05:00 Uhr | stark bewölkt | 12 --- --- 11 --- | NW 20 --- | 0.0 | 1028 | 0.0
06:00 Uhr | stark bewölkt | 12 --- --- 11 --- | NW 22 --- | 0.0 | 1028 | 0.0
07:00 Uhr | stark bewölkt | 12 --- --- 11 --- | NW 20 --- | 0.0 | 1027 | 0.0
08:00 Uhr | stark bewölkt | 12 --- 11 12 --- | NW 20 --- | 0.0 | 1028 | 0.0
09:00 Uhr | stark bewölkt | 12 --- --- 13 --- | NW 20 --- | 0.0 | 1028 | 0.1
10:00 Uhr | stark bewölkt | 13 --- --- 15 --- | NW 20 --- | 0.0 | 1029 | 0.1
11:00 Uhr | stark bewölkt | 14 --- --- 16 --- | NW 18 --- | 0.0 | 1029 | 0.2
12:00 Uhr | stark bewölkt | 15 --- --- 17 --- | NW 18 --- | 0.0 | 1030 | 0.3
13:00 Uhr | stark bewölkt | 15 --- --- 18 --- | NW 18 --- | 0.0 | 1030 | 0.4
14:00 Uhr | wolkig | 15 --- --- 18 --- | NW 18 --- | 0.0 | 1030 | 0.4
15:00 Uhr | wolkig | 15 --- --- 18 --- | NW 18 --- | 0.0 | 1029 | 0.4
16:00 Uhr | wolkig | 15 --- --- 18 --- | NW 18 --- | 0.0 | 1029 | 0.4
17:00 Uhr | wolkig | 15 --- --- 17 --- | NW 18 --- | 0.0 | 1030 | 0.4
18:00 Uhr | wolkig | 15 --- --- 16 --- | NW 18 --- | 0.0 | 1029 | 0.3
19:00 Uhr | wolkig | 14 --- --- 15 --- | NW 17 --- | 0.0 | 1029 | 0.2
20:00 Uhr | wolkig | 14 16 --- 14 --- | NW 17 --- | 0.0 | 1029 | 0.1
21:00 Uhr | wolkig | 14 --- --- 13 --- | NW 17 --- | 0.0 | 1030 | 0.0
22:00 Uhr | stark bewölkt | 14 --- --- 13 --- | NW 17 --- | 0.0 | 1030 | 0.0
23:00 Uhr | stark bewölkt | 14 --- --- 12 | NW 17 --- | 0.0 | 1029 | 0.0
00:00 Uhr | stark bewölkt | 14 --- --- 12 14 | NW 15 --- | 0.0 0.0 | 1029 | 0.0 3.1
Freitag - 20.09.2019
| Wetter - | Temperaturen | Wind | Niederschlag | Druck | Sonne
Zeit GZ | Bewölkung | TT MAX MIN TG TM | DD FF FX3 | RR3 RR24 | PPPP | SS3 SS24
02:00 Uhr | stark bewölkt | 14 --- --- 12 --- | NW 17 --- | 0.0 | 1029 | 0.0
05:00 Uhr | stark bewölkt | 14 --- --- 13 --- | NW 15 --- | 0.0 | 1027 | 0.0
08:00 Uhr | stark bewölkt | 14 --- 13 13 --- | W 15 --- | 0.0 | 1027 | 0.0
11:00 Uhr | stark bewölkt | 15 --- --- 17 --- | W 15 --- | 0.0 | 1027 | 0.4
14:00 Uhr | wolkig | 16 --- --- 19 --- | NW 13 --- | 0.0 | 1027 | 0.9
17:00 Uhr | wolkig | 16 --- --- 18 --- | NW 13 --- | 0.0 | 1027 | 1.1
20:00 Uhr | wolkig | 15 17 --- 15 --- | NO 11 --- | 0.0 | 1026 | 0.8
23:00 Uhr | wolkig | 14 --- --- 13 15 | O 11 --- | 0.0 0.0 | 1026 | 0.0 3.2
Samstag - 21.09.2019
| Wetter - | Temperaturen | Wind | Niederschlag | Druck | Sonne
Zeit GZ | Bewölkung | TT MAX MIN TG TM | DD FF FX3 | RR3 RR24 | PPPP | SS3 SS24
02:00 Uhr | wolkig | 13 --- --- 12 --- | SO 11 --- | 0.0 | 1025 | 0.0
05:00 Uhr | leicht bewölkt | 12 --- --- 12 --- | SO 11 --- | 0.0 | 1024 | 0.0
08:00 Uhr | leicht bewölkt | 13 --- 12 12 --- | SO 13 --- | 0.0 | 1024 | 0.2
11:00 Uhr | leicht bewölkt | 16 --- --- 18 --- | SO 15 --- | 0.0 | 1022 | 1.8
14:00 Uhr | leicht bewölkt | 19 --- --- 23 --- | SO 17 --- | 0.0 | 1022 | 2.5
17:00 Uhr | leicht bewölkt | 20 --- --- 22 --- | O 17 --- | 0.0 | 1021 | 2.5
20:00 Uhr | leicht bewölkt | 18 21 --- 17 --- | SO 15 --- | 0.0 | 1020 | 1.6
23:00 Uhr | leicht bewölkt | 17 --- --- 16 16 | SO 17 --- | 0.0 0.0 | 1020 | 0.0 8.6
Sonntag - 22.09.2019
| Wetter - | Temperaturen | Wind | Niederschlag | Druck | Sonne
Zeit GZ | Bewölkung | TT MAX MIN TG TM | DD FF FX3 | RR3 RR24 | PPPP | SS3 SS24
02:00 Uhr | leicht bewölkt | 15 --- --- 14 --- | SO 17 --- | 0.0 | 1019 | 0.0
05:00 Uhr | leicht bewölkt | 15 --- --- 13 --- | SO 17 --- | 0.0 | 1018 | 0.0
08:00 Uhr | leicht bewölkt | 14 --- 14 14 --- | SO 18 --- | 0.0 | 1018 | 0.3
11:00 Uhr | leicht bewölkt | 17 --- --- 19 --- | SO 18 --- | 0.0 | 1018 | 1.9
14:00 Uhr | leicht bewölkt | 21 --- --- 24 --- | SO 18 --- | 0.0 | 1017 | 2.5
17:00 Uhr | leicht bewölkt | 21 --- --- 23 --- | SO 17 --- | 0.0 | 1017 | 2.2
20:00 Uhr | leicht bewölkt | 19 22 --- 19 --- | SO 17 --- | 0.0 | 1016 | 1.2
23:00 Uhr | leicht bewölkt | 18 --- --- 17 18 | SO 17 --- | 0.0 0.0 | 1016 | 0.0 8.2
Montag - 23.09.2019
| Wetter - | Temperaturen | Wind | Niederschlag | Druck | Sonne
Zeit GZ | Bewölkung | TT MAX MIN TG TM | DD FF FX3 | RR3 RR24 | PPPP | SS3 SS24
02:00 Uhr | wolkig | 17 --- --- 16 --- | SO 17 --- | 0.0 | 1016 | 0.0
05:00 Uhr | wolkig | 16 --- --- 16 --- | SO 17 --- | 0.0 | 1016 | 0.0
08:00 Uhr | wolkig | 16 --- 15 16 --- | SO 17 --- | 0.0 | 1016 | 0.1
11:00 Uhr | wolkig | 17 --- --- 19 --- | S 18 --- | 0.0 | 1016 | 1.1
14:00 Uhr | wolkig | 19 --- --- 22 --- | S 20 --- | 0.0 | 1016 | 1.6
17:00 Uhr | wolkig | 19 --- --- 21 --- | S 20 --- | 0.0 | 1016 | 1.6
20:00 Uhr | wolkig | 18 21 --- 17 --- | S 18 --- | 0.0 | 1016 | 0.9
23:00 Uhr | wolkig | 17 --- --- 16 18 | S 18 --- | 0.0 0.0 | 1016 | 0.0 5.3
Dienstag - 24.09.2019
| Wetter - | Temperaturen | Wind | Niederschlag | Druck | Sonne
Zeit GZ | Bewölkung | TT MAX MIN TG TM | DD FF FX3 | RR3 RR24 | PPPP | SS3 SS24
02:00 Uhr | wolkig | 16 --- --- 16 --- | S 18 --- | 0.0 | 1015 | 0.0
05:00 Uhr | wolkig | 16 --- --- 15 --- | S 20 --- | 0.0 | 1015 | 0.0
08:00 Uhr | wolkig | 16 --- 15 16 --- | S 20 --- | 0.0 | 1014 | 0.1
11:00 Uhr | wolkig | 17 --- --- 19 --- | S 22 --- | 0.0 | 1015 | 1.0
14:00 Uhr | wolkig | 19 --- --- 22 --- | S 22 --- | 0.0 | 1015 | 1.5
17:00 Uhr | wolkig | 19 --- --- 20 --- | SW 22 --- | 0.0 | 1014 | 1.5
20:00 Uhr | wolkig | 18 20 --- 17 --- | SW 18 --- | 0.0 | 1014 | 0.8
23:00 Uhr | wolkig | 17 --- --- 16 17 | S 20 --- | 0.0 0.0 | 1014 | 0.0 4.8
Mittwoch - 25.09.2019
| Wetter - | Temperaturen | Wind | Niederschlag | Druck | Sonne
Zeit GZ | Bewölkung | TT MAX MIN TG TM | DD FF FX3 | RR3 RR24 | PPPP | SS3 SS24
02:00 Uhr | wolkig | 16 --- --- 15 --- | S 18 --- | 0.0 | 1013 | 0.0
05:00 Uhr | wolkig | 15 --- --- 14 --- | S 20 --- | 0.0 | 1012 | 0.0
08:00 Uhr | wolkig | 15 --- 14 15 --- | S 20 --- | 0.0 | 1012 | 0.1
11:00 Uhr | wolkig | 16 --- --- 18 --- | S 24 43 | 0.0 | 1013 | 1.0
14:00 Uhr | wolkig | 18 --- --- 21 --- | SW 24 41 | 0.0 | 1012 | 1.4
17:00 Uhr | wolkig | 18 --- --- 19 --- | SW 22 41 | 0.0 | 1012 | 1.5
20:00 Uhr | wolkig | 17 20 --- 16 --- | SW 20 --- | 0.0 | 1013 | 0.7
23:00 Uhr | wolkig | 16 --- --- 15 16 | SW 20 --- | 0.0 0.0 | 1013 | 0.0 4.7
Donnerstag - 26.09.2019
| Wetter - | Temperaturen | Wind | Niederschlag | Druck | Sonne
Zeit GZ | Bewölkung | TT MAX MIN TG TM | DD FF FX3 | RR3 RR24 | PPPP | SS3 SS24
02:00 Uhr | wolkig | 15 --- --- 14 --- | SW 20 --- | 0.0 | 1012 | 0.0
05:00 Uhr | wolkig | 15 --- --- 14 --- | SW 20 --- | 0.0 | 1012 | 0.0
08:00 Uhr | wolkig | 14 --- 14 13 --- | S 20 --- | 0.0 | 1012 | 0.1
11:00 Uhr | wolkig | 16 --- --- 16 --- | S 22 --- | 0.0 | 1012 | 1.0
14:00 Uhr | wolkig | 17 --- --- 19 --- | S 22 --- | 0.0 | 1013 | 1.6
17:00 Uhr | wolkig | 17 --- --- 18 --- | SW 20 --- | 0.0 | 1013 | 1.5
20:00 Uhr | wolkig | 16 18 --- 16 --- | SW 18 --- | 0.0 | 1014 | 0.8
23:00 Uhr | wolkig | 15 --- --- 14 16 | S 18 --- | 0.0 0.0 | 1014 | 0.0 5.0
Freitag - 27.09.2019
| Wetter - | Temperaturen | Wind | Niederschlag | Druck | Sonne
Zeit GZ | Bewölkung | TT MAX MIN TG TM | DD FF FX3 | RR3 RR24 | PPPP | SS3 SS24
02:00 Uhr | wolkig | 14 --- --- 14 --- | S 17 --- | 0.0 | 1014 | 0.0
05:00 Uhr | wolkig | 14 --- --- 13 --- | S 17 --- | 0.0 | 1014 | 0.0
---:00 Uhr | --- | --- --- --- --- --- | --- --- --- | --- | --- | ---
---:00 Uhr | --- | --- --- --- --- --- | --- --- --- | --- | --- | ---
---:00 Uhr | --- | --- --- --- --- --- | --- --- --- | --- | --- | ---
---:00 Uhr | --- | --- --- --- --- --- | --- --- --- | --- | --- | ---
---:00 Uhr | --- | --- --- --- --- --- | --- --- --- | --- | --- | ---
---:00 Uhr | --- | --- --- --- --- --- | --- --- --- | --- --- | --- | ---


Wetter : Wetter/Bewölkung zum Termin (aktuelle Stunde) TT : Lufttemperatur in Grad Celsius zum Termin MAX : Maximum Lufttemperatur in Grad Celsius letzte 12 Stunden MIN : Minimum Lufttemperatur der vergangenen Nacht in Grad Celsius letzte 12 Stunden TG : Temperatur in 5cm überm Erdboden TM : Tagesmittel Lufttemperatur in Grad Celsius letzte 24 Stunden DD : Windrichtung zum Termin FF : Windgeschwindigkeit zum Termin FX1 : höchste Windspitze im Bezugszeitraum letzte 1 Stunde in km/h FX3 : höchste Windspitze im Bezugszeitraum letzte 3 Stunden in km/h PPPP : reduzierter Luftdruck auf Meereshöhe in hPa zum Termin RR1 : Niederschlagsmenge im Bezugszeitraum letzte 1 Stunde in mm = l/qm RR3 : Niederschlagsmenge im Bezugszeitraum letzte 3 Stunden in mm = l/qm RR24 : Niederschlagsmenge im Bezugszeitraum letzte 24 Stunden in mm = l/qm SS1 : Sonnenscheindauer letzte 1 Stunde SS3 : Sonnenscheindauer letzte 3 Stunden SS24 : Sonnenscheindauer letzte 24 Stunden --- : Wert nicht vorhanden